Location: Gleizolles
(44.4833°N, 6.7667°E)
Time: 16:46:19
(UTC+00:00)

Altair - Pass Details

Date: 29 June 2024
Orbit: 1502 x 1681 km, 47.2° (Epoch: 13 July)

Event Time Altitude Azimuth Distance (km) Brightness Sun altitude
Rises 06:41:36 0° 293° (WNW) 4,721 9.6 27.4°
Reaches altitude 10° 06:45:05 10° 283° (WNW) 3,760 9.1 28.0°
Maximum altitude 06:52:57 30° 227° (SW) 2,558 8.5 29.4°
Drops below altitude 10° 07:01:05 10° 171° (S) 3,866 9.8 30.8°
Sets 07:04:45 0° 161° (SSE) 4,873 10.3 31.5°
